Total_Precipitation_Accumulation
1.97 1.85 1.38 0.81 0.65 0.48 0.41 0.43 0.42 0.36 0.40 0.49 0.52 0.53 0.58 0.59 0.62 0.66 0.69 0.66 0.65 0.78 1.06 1.18 1.25 1.54 1.82 1.96 2.13 2.27 2.38 2.47 2.71 2.88 2.86 2.75 2.57 2.34 2.23 2.22 2.14 2.04 1.96 2.01
1.72 1.29 0.78 0.59 0.59 0.55 0.51 0.50 0.48 0.40 0.37 0.49 0.52 0.51 0.48 0.47 0.59 0.71 0.71 0.72 0.74 0.77 0.93 1.06 1.13 1.28 1.51 1.72 1.93 2.18 2.29 2.38 2.39 2.45 2.68 2.83 2.89 2.70 2.41 2.24 2.16 2.08 2.01 2.02
1.28 0.79 0.61 0.71 0.68 0.66 0.55 0.47 0.41 0.42 0.43 0.50 0.51 0.53 0.44 0.44 0.52 0.61 0.66 0.69 0.69 0.73 0.82 0.91 1.04 1.24 1.35 1.48 1.71 2.01 2.18 2.31 2.34 2.36 2.63 2.86 3.02 2.86 2.52 2.17 1.99 2.00 2.02 2.06
1.13 0.70 0.67 0.78 0.64 0.56 0.54 0.32 0.31 0.35 0.53 0.62 0.54 0.71 0.48 0.46 0.50 0.57 0.64 0.63 0.62 0.66 0.70 0.74 0.86 1.04 1.17 1.32 1.49 1.66 1.87 2.05 2.24 2.34 2.41 2.45 2.57 2.57 2.31 2.20 2.09 2.07 2.07 2.08
1.07 0.74 0.75 0.79 0.55 0.46 0.45 0.30 0.34 0.37 0.50 0.59 0.46 0.65 0.55 0.36 0.42 0.56 0.66 0.65 0.63 0.68 0.69 0.69 0.83 1.01 1.08 1.17 1.40 1.54 1.62 1.81 2.05 2.20 2.26 2.38 2.38 2.41 2.46 2.42 2.32 2.20 2.13 2.08
0.80 0.65 0.76 0.66 0.50 0.47 0.48 0.46 0.51 0.50 0.70 0.77 0.38 0.51 0.55 0.40 0.47 0.51 0.52 0.57 0.63 0.68 0.75 0.79 0.90 1.00 1.03 1.09 1.25 1.46 1.47 1.56 1.73 1.99 2.20 2.26 2.21 2.25 2.30 2.29 2.23 2.19 2.16 2.11
1.02 0.77 0.64 0.58 0.69 0.62 0.60 0.76 1.07 1.11 1.02 0.58 0.26 0.41 0.56 0.42 0.44 0.47 0.48 0.50 0.57 0.65 0.70 0.78 0.88 0.89 0.94 1.03 1.14 1.31 1.40 1.47 1.57 1.74 1.93 2.11 2.20 2.21 2.22 2.23 2.18 2.08 1.98 1.87
1.01 1.05 0.66 0.56 0.67 0.70 0.56 0.60 0.79 0.78 0.48 0.31 0.25 0.40 0.49 0.40 0.36 0.33 0.34 0.40 0.48 0.56 0.58 0.62 0.72 0.81 0.90 0.98 1.04 1.08 1.14 1.20 1.28 1.37 1.50 1.69 1.95 2.06 1.99 1.99 1.96 1.92 1.83 1.80
0.66 0.67 0.42 0.37 0.40 0.46 0.59 0.55 0.42 0.66 0.49 0.41 0.32 0.33 0.35 0.29 0.29 0.29 0.32 0.39 0.48 0.56 0.60 0.59 0.65 0.69 0.78 0.89 1.00 1.00 0.99 1.03 1.12 1.15 1.23 1.36 1.58 1.74 1.78 1.80 1.75 1.66 1.62 1.66
0.43 0.50 0.36 0.33 0.41 0.43 0.43 0.43 0.55 0.93 0.80 0.56 0.33 0.31 0.45 0.36 0.30 0.32 0.38 0.42 0.50 0.62 0.60 0.57 0.61 0.63 0.68 0.77 0.88 0.92 0.93 0.95 1.07 1.11 1.14 1.22 1.32 1.41 1.57 1.65 1.55 1.49 1.47 1.49
0.35 0.49 0.44 0.40 0.44 0.38 0.34 0.46 0.55 0.65 0.63 0.63 0.41 0.43 0.49 0.43 0.37 0.37 0.40 0.46 0.56 0.60 0.61 0.63 0.65 0.65 0.69 0.76 0.79 0.81 0.88 0.93 1.03 1.07 1.04 1.05 1.11 1.16 1.25 1.33 1.38 1.32 1.32 1.31
0.27 0.43 0.43 0.30 0.21 0.20 0.30 0.34 0.45 0.74 0.57 0.46 0.47 0.51 0.43 0.37 0.36 0.36 0.38 0.43 0.50 0.51 0.56 0.60 0.60 0.62 0.68 0.74 0.73 0.70 0.77 0.83 0.95 0.99 0.94 0.93 0.98 1.04 1.08 1.11 1.20 1.21 1.19 1.19
0.41 0.57 0.59 0.46 0.41 0.38 0.43 0.32 0.34 0.56 0.74 0.57 0.55 0.55 0.40 0.32 0.32 0.33 0.37 0.41 0.41 0.41 0.42 0.45 0.47 0.49 0.52 0.54 0.58 0.63 0.66 0.65 0.71 0.76 0.74 0.74 0.76 0.83 0.91 0.94 0.96 1.01 1.05 1.08
0.65 0.63 0.53 0.52 0.48 0.57 0.53 0.30 0.29 0.72 0.95 0.50 0.36 0.42 0.36 0.34 0.38 0.39 0.40 0.39 0.35 0.33 0.33 0.37 0.40 0.39 0.42 0.45 0.48 0.54 0.54 0.54 0.61 0.63 0.62 0.63 0.65 0.68 0.73 0.78 0.76 0.78 0.83 0.90
0.57 0.57 0.33 0.34 0.38 0.54 0.49 0.32 0.30 0.49 0.47 0.49 0.32 0.31 0.37 0.39 0.46 0.46 0.43 0.36 0.29 0.27 0.28 0.32 0.36 0.37 0.40 0.42 0.44 0.47 0.51 0.57 0.63 0.66 0.66 0.63 0.63 0.63 0.66 0.71 0.71 0.68 0.69 0.70
0.51 0.56 0.39 0.37 0.34 0.44 0.38 0.23 0.22 0.25 0.25 0.28 0.24 0.32 0.33 0.36 0.42 0.45 0.43 0.34 0.26 0.24 0.24 0.26 0.29 0.33 0.36 0.41 0.46 0.50 0.56 0.65 0.69 0.72 0.69 0.67 0.63 0.61 0.58 0.59 0.60 0.60 0.60 0.60
0.52 0.67 0.82 0.62 0.32 0.42 0.41 0.28 0.25 0.26 0.25 0.26 0.33 0.33 0.28 0.34 0.41 0.41 0.36 0.27 0.23 0.22 0.22 0.23 0.25 0.30 0.34 0.43 0.52 0.59 0.65 0.73 0.75 0.77 0.71 0.66 0.62 0.59 0.57 0.54 0.55 0.57 0.59 0.61
0.40 0.64 1.00 0.84 0.54 0.59 0.43 0.30 0.28 0.28 0.27 0.25 0.26 0.23 0.23 0.29 0.33 0.31 0.25 0.23 0.19 0.18 0.18 0.20 0.22 0.23 0.26 0.33 0.44 0.54 0.61 0.75 0.79 0.79 0.78 0.75 0.74 0.75 0.76 0.76 0.76 0.77 0.74 0.76
0.20 0.53 0.88 0.80 0.60 0.35 0.21 0.18 0.26 0.33 0.32 0.24 0.20 0.17 0.15 0.17 0.24 0.29 0.23 0.22 0.22 0.19 0.18 0.18 0.19 0.20 0.21 0.25 0.33 0.42 0.55 0.72 0.86 0.94 0.96 0.97 1.00 1.05 1.08 1.09 1.07 1.07 1.08 1.07
0.16 0.37 0.79 0.76 0.64 0.34 0.22 0.11 0.12 0.22 0.37 0.18 0.14 0.14 0.13 0.14 0.25 0.32 0.29 0.25 0.23 0.22 0.21 0.20 0.20 0.21 0.23 0.27 0.34 0.48 0.66 0.83 0.95 1.01 1.06 1.10 1.17 1.24 1.22 1.19 1.15 1.07 1.03 1.05
0.28 0.48 0.68 0.65 0.62 0.35 0.22 0.10 0.08 0.31 0.44 0.19 0.15 0.16 0.17 0.21 0.28 0.25 0.23 0.26 0.26 0.26 0.29 0.30 0.31 0.34 0.36 0.39 0.47 0.63 0.75 0.87 0.93 0.95 0.97 1.00 1.00 1.03 1.01 0.98 0.94 0.89 0.84 0.80
0.28 0.39 0.43 0.46 0.63 0.49 0.25 0.17 0.30 0.42 0.26 0.19 0.15 0.15 0.17 0.18 0.17 0.15 0.14 0.17 0.21 0.24 0.30 0.38 0.45 0.48 0.49 0.52 0.59 0.67 0.71 0.72 0.71 0.70 0.70 0.69 0.65 0.61 0.62 0.64 0.65 0.63 0.61 0.59
0.33 0.43 0.46 0.47 0.55 0.44 0.32 0.35 0.38 0.30 0.25 0.19 0.16 0.15 0.15 0.15 0.15 0.13 0.12 0.11 0.13 0.13 0.16 0.21 0.28 0.33 0.34 0.35 0.40 0.44 0.42 0.37 0.34 0.32 0.33 0.35 0.34 0.34 0.35 0.38 0.41 0.44 0.45 0.45
0.30 0.26 0.33 0.39 0.39 0.31 0.28 0.28 0.27 0.25 0.25 0.22 0.19 0.17 0.16 0.17 0.16 0.15 0.12 0.11 0.11 0.10 0.12 0.12 0.13 0.15 0.15 0.16 0.19 0.22 0.20 0.16 0.16 0.17 0.18 0.21 0.24 0.27 0.29 0.33 0.36 0.39 0.40 0.40
0.26 0.25 0.31 0.35 0.30 0.25 0.22 0.22 0.22 0.21 0.20 0.19 0.17 0.17 0.17 0.18 0.18 0.16 0.15 0.14 0.14 0.13 0.13 0.13 0.13 0.13 0.14 0.14 0.14 0.16 0.16 0.15 0.15 0.15 0.16 0.18 0.21 0.24 0.26 0.28 0.34 0.40 0.41 0.44
0.24 0.31 0.40 0.40 0.28 0.31 0.26 0.19 0.18 0.18 0.17 0.18 0.19 0.20 0.20 0.19 0.21 0.19 0.18 0.18 0.17 0.17 0.16 0.15 0.15 0.17 0.19 0.20 0.21 0.21 0.21 0.20 0.19 0.20 0.20 0.23 0.24 0.25 0.26 0.27 0.29 0.34 0.39 0.43